DECAYED

FENGYUN 1C DEB, 30039 (Decayed)

Orbit data source: Space-Track

FENGYUN 1C DEB, 30039 was space debris in SSO originally from a launch on Mon, 10 May 1999 UTC launched from the Taiyaun Space Center, China (TSC). Fengyun 1C debris stems from the Chinese weather satellite Fengyun-1C, which was intentionally destroyed by a Chinese anti-satellite missile in 2007. This event dramatically increased the amount of space debris, with thousands of trackable fragments posing hazards to satellites and human spaceflight. The Fengyun 1C debris cloud has become a focal point in discussions about space sustainability and the need for international regulations to prevent the creation of new debris.

Not visible in the next 10 days
Identifier
30039, 1999-025NQ
Orbit
Decayed
Country
Flag of CNCN / PRC
Related business
Manufacturer
Unknown
Mission
Decayed spacecraft
Bus & Motor
Unknown
Mass
Unknown
Launch date (UTC)
1999-05-10 (27 years ago)
Launch vehicle
Unknown
Launch site
Taiyaun Space Center, China (TSC)
Object type
Payload
Rocket body
Debris
Shape & HBR
Unknown shape, 0.1 m
Radar Cross Section
Medium (>0.1 m² and <1 m²)

Expand to show TLE details & history
Last TLE update: 1 year ago

TLE from 1 year ago
0 FENGYUN 1C DEB
1 30039U 99025NQ  25101.48948111  .07360080  12448+0  19091-1 0  9998
2 30039  96.9364  86.9509 0021892 156.9758 203.2508 16.00930560959850
Epoch: 2025-04-11T11:44Z
TLE epoch observation values (Epoch: 2025-04-11T11:44:51.167Z)
Latitude
-0.00009°
Longitude
70.79095°
Altitude
288.437 km
Speed
7.727 km/s
True Right ascension
05h 47m 48s
True Declination
0° 00' 00"
Sunlit
Object was in daylight at epoch
Visualization orbit readout
Latitude
Unknown
Longitude
Unknown
Altitude
Unknown
Speed
Unknown
Apparent Right ascension
Unknown
Apparent Declination
Unknown
Sunlit
N/A
Visualization observer readout
Local Sidereal Time
22:26:48
Azimuth
Unknown
Elevation
Unknown
Doppler factor
Unknown
Orbital elements
Apogee altitude
283.23 km
Perigee altitude
254.128 km
Semi-major axis
6,646.816 km
Eccentricity
0.00219
Inclination
96.9364°
RAAN
86.9509°
Arg. of periapsis
156.9758°
True anomaly
203.15202°
Mean anomaly
203.2508°
Eccentric anomaly
203.20138°
Mean motion
4.00519 °/min
Orbital period
89.88 mins
BSTAR
0.019091
Loading maneuver chart data...
Computing Atmospheric mass density...

Documentation

Showing up to 5 results
|